User: anonymous   Login
Location: Unspecified
(0.0000°N, 0.0000°E)
Time: 21:25:51
(UTC+00:00)
Language:

Tiros 10 - Orbit

View from above orbital plane
View from above orbital plane
View from above satellite
View from above satellite

Ground track
Ground track

The orbit data is extracted from the following two-line orbital elements,

1 01430U 65051A   15212.50834965  .00000063  00000-0  32189-4 0  9992
2 01430 098.0780 032.2098 0056758 173.6199 186.5726 14.40078932624266
Epoch (UTC): 31 July 2015 12:12:01
Eccentricity: 0.0056758
inclination: 98.0780°
perigee height: 718 km
apogee height: 799 km
right ascension of ascending node: 32.2098°
argument of perigee: 173.6199°
revolutions per day: 14.40078932
mean anomaly at epoch: 186.5726°
orbit number at epoch: 62426

The dashed part of the orbit path shows where the satellite is in the earth's shadow,  

DLR